Time,TemperatureF,DewpointF,PressureIn,WindDirection,WindDirectionDegrees,WindSpeedMPH,WindSpeedGustMPH,Humidity,HourlyPrecipIn,Conditions,Clouds,dailyrainin,SoftwareType,DateUTC
2013-05-24 00:09:00,47.6,39.0,30.17,NW,325,9.0,18.0,73,0.00,,,0.00,weatherlink.com 1.10,2013-05-24 04:09:00,
2013-05-24 00:24:00,46.4,39.0,30.17,NNW,342,11.0,13.0,74,0.00,,,0.00,weatherlink.com 1.10,2013-05-24 04:24:00,
2013-05-24 00:39:00,45.9,38.0,30.18,North,9,4.0,12.0,75,0.00,,,0.00,weatherlink.com 1.10,2013-05-24 04:39:00,
2013-05-24 00:54:00,45.4,38.0,30.18,NE,34,8.0,13.0,76,0.00,,,0.00,weatherlink.com 1.10,2013-05-24 04:54:00,
2013-05-24 01:09:00,44.5,39.0,30.19,WNW,295,4.0,10.0,80,0.00,,,0.00,weatherlink.com 1.10,2013-05-24 05:09:00,
2013-05-24 01:24:00,43.7,39.0,30.19,NW,317,9.0,13.0,82,0.00,,,0.00,weatherlink.com 1.10,2013-05-24 05:24:00,
2013-05-24 01:39:00,45.1,40.0,30.20,NNE,12,17.0,19.0,83,0.00,,,0.00,weatherlink.com 1.10,2013-05-24 05:39:00,
2013-05-24 01:54:00,46.7,40.0,30.20,NE,39,19.0,27.0,77,0.00,,,0.00,weatherlink.com 1.10,2013-05-24 05:54:00,
2013-05-24 02:09:00,46.4,38.0,30.20,NE,34,25.0,29.0,72,0.00,,,0.00,weatherlink.com 1.10,2013-05-24 06:09:00,
2013-05-24 02:25:00,46.1,38.0,30.21,North,11,21.0,28.0,74,0.00,,,0.00,weatherlink.com 1.10,2013-05-24 06:25:00,
2013-05-24 02:40:00,45.6,39.0,30.21,NNE,23,21.0,27.0,77,0.00,,,0.00,weatherlink.com 1.10,2013-05-24 06:40:00,
2013-05-24 02:55:00,45.1,39.0,30.21,NE,48,24.0,28.0,79,0.00,,,0.00,weatherlink.com 1.10,2013-05-24 06:55:00,
2013-05-24 03:10:00,44.4,39.0,30.22,NNE,32,14.0,27.0,81,0.00,,,0.00,weatherlink.com 1.10,2013-05-24 07:10:00,
2013-05-24 03:25:00,44.1,37.0,30.23,NE,40,18.0,25.0,77,0.00,,,0.00,weatherlink.com 1.10,2013-05-24 07:25:00,
2013-05-24 03:40:00,43.8,37.0,30.23,NE,47,21.0,24.0,78,0.00,,,0.00,weatherlink.com 1.10,2013-05-24 07:40:00,
2013-05-24 03:55:00,43.4,37.0,30.24,NE,43,19.0,26.0,79,0.00,,,0.00,weatherlink.com 1.10,2013-05-24 07:55:00,
2013-05-24 04:10:00,43.3,38.0,30.24,NNE,33,24.0,26.0,80,0.00,,,0.00,weatherlink.com 1.10,2013-05-24 08:10:00,
2013-05-24 04:25:00,43.3,38.0,30.24,NNE,33,18.0,28.0,81,0.00,,,0.00,weatherlink.com 1.10,2013-05-24 08:25:00,
2013-05-24 04:40:00,42.8,36.0,30.25,NE,44,24.0,25.0,78,0.00,,,0.00,weatherlink.com 1.10,2013-05-24 08:40:00,
2013-05-24 04:55:00,42.5,36.0,30.25,NE,35,20.0,23.0,79,0.00,,,0.00,weatherlink.com 1.10,2013-05-24 08:55:00,
2013-05-24 05:10:00,41.5,36.0,30.26,North,360,17.0,18.0,80,0.00,,,0.00,weatherlink.com 1.10,2013-05-24 09:10:00,
2013-05-24 05:25:00,40.5,35.0,30.26,NNE,16,4.0,16.0,82,0.00,,,0.00,weatherlink.com 1.10,2013-05-24 09:25:00,
2013-05-24 05:40:00,40.5,36.0,30.27,NNE,18,11.0,17.0,83,0.00,,,0.00,weatherlink.com 1.10,2013-05-24 09:40:00,
2013-05-24 05:55:00,40.2,35.0,30.27,NNE,13,14.0,15.0,81,0.00,,,0.00,weatherlink.com 1.10,2013-05-24 09:55:00,
2013-05-24 06:10:00,39.5,34.0,30.28,NW,323,5.0,14.0,79,0.00,,,0.00,weatherlink.com 1.10,2013-05-24 10:10:00,
2013-05-24 06:25:00,39.9,35.0,30.28,NNW,335,5.0,17.0,81,0.00,,,0.00,weatherlink.com 1.10,2013-05-24 10:25:00,
2013-05-24 06:40:00,40.2,35.0,30.29,NNE,26,11.0,16.0,80,0.00,,,0.00,weatherlink.com 1.10,2013-05-24 10:40:00,
2013-05-24 06:55:00,40.4,35.0,30.29,NNE,22,12.0,17.0,82,0.00,,,0.00,weatherlink.com 1.10,2013-05-24 10:55:00,
2013-05-24 07:10:00,40.4,34.0,30.30,NNW,328,10.0,18.0,79,0.00,,,0.00,weatherlink.com 1.10,2013-05-24 11:10:00,
2013-05-24 07:25:00,40.2,35.0,30.30,NNW,332,9.0,18.0,80,0.00,,,0.00,weatherlink.com 1.10,2013-05-24 11:25:00,
2013-05-24 07:40:00,40.2,35.0,30.31,North,9,10.0,19.0,82,0.00,,,0.00,weatherlink.com 1.10,2013-05-24 11:40:00,
2013-05-24 07:55:00,40.2,35.0,30.32,NNW,344,10.0,19.0,80,0.00,,,0.00,weatherlink.com 1.10,2013-05-24 11:55:00,
2013-05-24 08:10:00,40.0,34.0,30.32,NNE,14,15.0,19.0,79,0.00,,,0.00,weatherlink.com 1.10,2013-05-24 12:10:00,
2013-05-24 08:25:00,40.4,35.0,30.33,NNE,27,17.0,20.0,80,0.00,,,0.00,weatherlink.com 1.10,2013-05-24 12:25:00,
2013-05-24 08:40:00,40.3,33.0,30.34,North,352,13.0,19.0,76,0.00,,,0.00,weatherlink.com 1.10,2013-05-24 12:40:00,
2013-05-24 08:55:00,40.2,34.0,30.34,NNW,346,16.0,18.0,77,0.00,,,0.00,weatherlink.com 1.10,2013-05-24 12:55:00,
2013-05-24 09:10:00,41.1,35.0,30.34,NE,37,18.0,19.0,78,0.00,,,0.00,weatherlink.com 1.10,2013-05-24 13:10:00,
2013-05-24 09:26:00,40.9,34.0,30.35,NNE,29,12.0,21.0,76,0.00,,,0.00,weatherlink.com 1.10,2013-05-24 13:26:00,
2013-05-24 09:41:00,41.1,33.0,30.36,NE,46,16.0,21.0,73,0.00,,,0.00,weatherlink.com 1.10,2013-05-24 13:41:00,
2013-05-24 09:56:00,41.8,34.0,30.36,NE,50,11.0,21.0,74,0.00,,,0.00,weatherlink.com 1.10,2013-05-24 13:56:00,
2013-05-24 10:11:00,41.2,33.0,30.36,NNW,333,7.0,16.0,73,0.00,,,0.00,weatherlink.com 1.10,2013-05-24 14:11:00,
2013-05-24 10:26:00,41.2,34.0,30.36,NNE,18,7.0,15.0,74,0.00,,,0.00,weatherlink.com 1.10,2013-05-24 14:26:00,
2013-05-24 10:41:00,41.6,34.0,30.36,NNE,29,10.0,13.0,75,0.00,,,0.00,weatherlink.com 1.10,2013-05-24 14:41:00,
2013-05-24 10:56:00,41.8,33.0,30.37,NNE,29,8.0,15.0,72,0.00,,,0.00,weatherlink.com 1.10,2013-05-24 14:56:00,
2013-05-24 11:11:00,42.4,33.0,30.37,NNE,29,9.0,11.0,70,0.00,,,0.00,weatherlink.com 1.10,2013-05-24 15:11:00,
2013-05-24 11:26:00,43.1,34.0,30.38,NE,53,5.0,10.0,70,0.00,,,0.00,weatherlink.com 1.10,2013-05-24 15:26:00,
2013-05-24 11:41:00,43.3,34.0,30.38,North,1,4.0,12.0,69,0.00,,,0.00,weatherlink.com 1.10,2013-05-24 15:41:00,
2013-05-24 11:56:00,43.4,33.0,30.38,NE,35,5.0,10.0,68,0.00,,,0.00,weatherlink.com 1.10,2013-05-24 15:56:00,
2013-05-24 12:11:00,43.7,34.0,30.38,ENE,61,8.0,9.0,70,0.00,,,0.00,weatherlink.com 1.10,2013-05-24 16:11:00,
2013-05-24 12:26:00,43.8,35.0,30.38,NNE,22,4.0,7.0,70,0.00,,,0.00,weatherlink.com 1.10,2013-05-24 16:26:00,
2013-05-24 12:41:00,43.8,34.0,30.38,ENE,75,6.0,9.0,69,0.00,,,0.00,weatherlink.com 1.10,2013-05-24 16:41:00,
2013-05-24 12:56:00,44.3,35.0,30.38,ENE,69,4.0,8.0,71,0.00,,,0.00,weatherlink.com 1.10,2013-05-24 16:56:00,
2013-05-24 13:11:00,44.4,35.0,30.38,ENE,73,6.0,7.0,69,0.00,,,0.00,weatherlink.com 1.10,2013-05-24 17:11:00,
2013-05-24 13:26:00,44.7,35.0,30.38,NE,50,5.0,6.0,70,0.00,,,0.00,weatherlink.com 1.10,2013-05-24 17:26:00,
2013-05-24 13:41:00,45.2,36.0,30.38,ENE,75,5.0,5.0,69,0.00,,,0.00,weatherlink.com 1.10,2013-05-24 17:41:00,
2013-05-24 13:56:00,45.5,37.0,30.38,ENE,74,7.0,8.0,72,0.00,,,0.00,weatherlink.com 1.10,2013-05-24 17:56:00,
2013-05-24 14:11:00,45.8,37.0,30.38,ENE,63,9.0,9.0,71,0.00,,,0.00,weatherlink.com 1.10,2013-05-24 18:11:00,
2013-05-24 14:26:00,45.6,37.0,30.37,ENE,63,10.0,14.0,73,0.00,,,0.00,weatherlink.com 1.10,2013-05-24 18:26:00,
2013-05-24 14:41:00,45.5,39.0,30.37,East,82,10.0,14.0,78,0.00,,,0.00,weatherlink.com 1.10,2013-05-24 18:41:00,
2013-05-24 14:56:00,45.7,39.0,30.37,ENE,63,15.0,16.0,77,0.00,,,0.00,weatherlink.com 1.10,2013-05-24 18:56:00,
2013-05-24 15:11:00,45.4,39.0,30.36,East,79,12.0,15.0,79,0.00,,,0.00,weatherlink.com 1.10,2013-05-24 19:11:00,
2013-05-24 15:26:00,45.3,38.0,30.37,East,100,11.0,13.0,76,0.00,,,0.00,weatherlink.com 1.10,2013-05-24 19:26:00,
2013-05-24 15:41:00,45.5,39.0,30.37,East,79,7.0,12.0,77,0.00,,,0.00,weatherlink.com 1.10,2013-05-24 19:41:00,
2013-05-24 15:56:00,45.7,40.0,30.36,ENE,70,9.0,10.0,79,0.00,,,0.00,weatherlink.com 1.10,2013-05-24 19:56:00,
2013-05-24 16:11:00,45.8,39.0,30.36,ENE,75,9.0,11.0,77,0.00,,,0.00,weatherlink.com 1.10,2013-05-24 20:11:00,
2013-05-24 16:26:00,46.1,40.0,30.36,ENE,74,10.0,11.0,79,0.00,,,0.00,weatherlink.com 1.10,2013-05-24 20:26:00,
2013-05-24 16:41:00,46.3,40.0,30.36,East,87,11.0,12.0,78,0.00,,,0.00,weatherlink.com 1.10,2013-05-24 20:41:00,
2013-05-24 16:56:00,46.3,40.0,30.35,ENE,76,12.0,14.0,80,0.00,,,0.00,weatherlink.com 1.10,2013-05-24 20:56:00,
2013-05-24 17:11:00,46.7,40.0,30.35,ENE,71,9.0,12.0,76,0.00,,,0.00,weatherlink.com 1.10,2013-05-24 21:11:00,
2013-05-24 17:26:00,46.8,40.0,30.35,East,87,8.0,10.0,76,0.00,,,0.00,weatherlink.com 1.10,2013-05-24 21:26:00,
2013-05-24 17:56:00,47.6,41.0,30.34,ENE,63,6.0,10.0,77,0.00,,,0.00,weatherlink.com 1.10,2013-05-24 21:56:00,
2013-05-24 18:11:00,47.7,40.0,30.34,ENE,68,7.0,9.0,75,0.00,,,0.00,weatherlink.com 1.10,2013-05-24 22:11:00,
2013-05-24 18:26:00,48.3,41.0,30.33,ENE,68,8.0,11.0,76,0.00,,,0.00,weatherlink.com 1.10,2013-05-24 22:26:00,
2013-05-24 18:41:00,48.3,40.0,30.33,ENE,60,6.0,9.0,74,0.00,,,0.00,weatherlink.com 1.10,2013-05-24 22:41:00,
2013-05-24 18:56:00,48.6,41.0,30.32,ENE,75,9.0,9.0,74,0.00,,,0.00,weatherlink.com 1.10,2013-05-24 22:56:00,
2013-05-24 19:11:00,49.0,41.0,30.32,ENE,72,11.0,11.0,73,0.00,,,0.00,weatherlink.com 1.10,2013-05-24 23:11:00,
2013-05-24 19:26:00,49.3,41.0,30.31,East,79,7.0,10.0,72,0.00,,,0.00,weatherlink.com 1.10,2013-05-24 23:26:00,
2013-05-24 19:41:00,49.3,42.0,30.31,ENE,78,10.0,10.0,75,0.00,,,0.00,weatherlink.com 1.10,2013-05-24 23:41:00,
2013-05-24 19:56:00,49.7,41.0,30.31,East,84,8.0,11.0,73,0.00,,,0.00,weatherlink.com 1.10,2013-05-24 23:56:00,
2013-05-24 20:11:00,50.0,43.0,30.31,ENE,70,8.0,12.0,76,0.00,,,0.00,weatherlink.com 1.10,2013-05-25 00:11:00,
2013-05-24 20:26:00,50.1,42.0,30.31,ENE,63,11.0,13.0,75,0.00,,,0.00,weatherlink.com 1.10,2013-05-25 00:26:00,
2013-05-24 20:41:00,50.4,43.0,30.31,East,80,10.0,13.0,75,0.00,,,0.00,weatherlink.com 1.10,2013-05-25 00:41:00,
2013-05-24 20:56:00,50.2,43.0,30.31,ESE,102,13.0,14.0,75,0.00,,,0.00,weatherlink.com 1.10,2013-05-25 00:56:00,
2013-05-24 21:11:00,49.9,43.0,30.31,ENE,78,12.0,15.0,76,0.00,,,0.00,weatherlink.com 1.10,2013-05-25 01:11:00,
2013-05-24 21:26:00,49.5,42.0,30.30,East,79,17.0,19.0,75,0.00,,,0.00,weatherlink.com 1.10,2013-05-25 01:26:00,
2013-05-24 21:41:00,49.4,40.0,30.30,East,79,13.0,17.0,70,0.00,,,0.00,weatherlink.com 1.10,2013-05-25 01:41:00,
2013-05-24 21:56:00,49.3,39.0,30.31,East,79,12.0,16.0,68,0.00,,,0.00,weatherlink.com 1.10,2013-05-25 01:56:00,
2013-05-24 22:26:00,49.3,41.0,30.32,East,96,12.0,15.0,74,0.00,,,0.00,weatherlink.com 1.10,2013-05-25 02:26:00,
2013-05-24 22:41:00,49.6,41.0,30.33,East,84,10.0,14.0,71,0.00,,,0.00,weatherlink.com 1.10,2013-05-25 02:41:00,
2013-05-24 22:56:00,49.6,40.0,30.34,East,95,8.0,12.0,69,0.00,,,0.00,weatherlink.com 1.10,2013-05-25 02:56:00,
2013-05-24 23:12:00,49.6,39.0,30.34,SE,125,8.0,12.0,67,0.00,,,0.00,weatherlink.com 1.10,2013-05-25 03:12:00,
2013-05-24 23:26:00,49.6,40.0,30.34,East,98,9.0,10.0,70,0.00,,,0.00,weatherlink.com 1.10,2013-05-25 03:26:00,
2013-05-24 23:41:00,49.3,40.0,30.35,ESE,106,8.0,8.0,71,0.00,,,0.00,weatherlink.com 1.10,2013-05-25 03:41:00,
2013-05-24 23:56:00,47.6,40.0,30.35,SW,236,2.0,6.0,74,0.00,,,0.00,weatherlink.com 1.10,2013-05-25 03:56:00,